Location: Moydans
(44.3997°N, 5.5038°E)
Time: 05:46:59
(UTC+02:00)

Nauka - Pass Details

Date: 25 September 2021
Orbit: 417 x 423 km, 51.6° (Epoch: 19 October)

Event Time Altitude Azimuth Distance (km) Brightness Sun altitude
Rises 20:05:53 0° 277° (W) 2,358 ? -7.3°
Reaches altitude 10° 20:08:13 10° 291° (WNW) 1,496 ? -7.7°
Maximum altitude 20:11:05 26° 350° (N) 872 ? -8.2°
Drops below altitude 10° 20:13:58 10° 49° (NE) 1,501 ? -8.7°
Enters shadow 20:14:48 - 55° (NE) 1,798 ? -8.9°
